THOR ABLESTAR DEB, 2432

Orbit data source: Space-Track

THOR ABLESTAR DEB, 2432 is space debris in LEO originally from a launch on Thu, 05 Dec 1963 UTC launched from the Air Force Western Test Range (AFWTR). Debris objects in space refer to the collection of defunct objects orbiting the Earth. Examples of debris include non-operational satellites, rocket bodies, and fragments generated from explosions, collisions, or faulty payload assembly.

Loading next visibility...
Identifier
2432, 1963-049G
Orbit
LEO
Country
Flag of USUS
Related business
Manufacturer
Unknown
Mission
Spacecraft
Bus & Motor
Unknown
Mass
Unknown
Launch date (UTC)
1963-12-05 (62 years ago)
Launch vehicle
Unknown
Launch site
Air Force Western Test Range (AFWTR)
Object type
Payload
Rocket body
Debris
Shape & HBR
Unknown
Radar Cross Section
Medium (>0.1 m² and <1 m²)

Expand to show TLE details & history
Last TLE update: 12 hours ago

TLE from 12 hours ago
0 THOR ABLESTAR DEB
1 02432U 63049G   25260.02258207  .00000104  00000-0  15302-3 0  9993
2 02432  89.9133  72.8686 0032550 303.3932 176.3218 13.48202758 35894
Epoch: 2025-09-17T00:32Z
TLE epoch observation values (Epoch: 2025-09-17T00:32:31.09Z)
Latitude
60.35005°
Longitude
-111.61697°
Altitude
1,113.466 km
Speed
7.289 km/s
True Right ascension
16h 50m 52s
True Declination
60° 12' 32"
Sunlit
Object was in daylight at epoch
Visualization orbit readout
Latitude
Unknown
Longitude
Unknown
Altitude
Unknown
Speed
Unknown
Apparent Right ascension
Unknown
Apparent Declination
Unknown
Sunlit
N/A
Visualization observer readout
Local Sidereal Time
05:00:52
Azimuth
Unknown
Elevation
Unknown
Doppler factor
Unknown
Orbital elements
Apogee altitude
1,100.194 km
Perigee altitude
1,051.668 km
Semi-major axis
7,454.068 km
Eccentricity
0.00326
Inclination
89.9133°
RAAN
72.8686°
Arg. of periapsis
303.3932°
True anomaly
176.34563°
Mean anomaly
176.3218°
Eccentric anomaly
176.33373°
Mean motion
3.37251 °/min
Orbital period
106.75 mins
BSTAR
0.00015302
Loading maneuver chart data...
Computing Atmospheric mass density...
Loading historical data...
Loading historical data...
Loading historical data...
Loading historical data...
Loading historical data...
Loading historical data...
Loading historical data...

Documentation

Showing up to 5 results
|